"2022-08-26 00:01:00",3085605,4.827333,323.0009,4.841645,0.8370462,5.88,0,3.208667,323.5972,7.138265,0.5696767,4.39,0,-999,0,19.9,90,19.93,19.95,0.2,0,0,20.74,13.24,0.2,101.6096,3.343,3.346,3.342,100,0,0,0,204.5,24.3,24.3
"2022-08-26 00:02:00",3085606,4.328667,329.1284,6.710012,0.4989439,5.62,0,3.458667,325.9253,5.344402,0.5297781,4.35,0,-999,0,19.91,89.6,19.97,19.98,0.2,0,0,20.74,13.23,0.2,101.6103,3.344,3.345,3.342,100,0,0,0,204.5,24.3,24.3
"2022-08-26 00:03:00",3085607,3.984666,329.0619,5.577292,0.4986364,4.87,0,3.988,327.8597,5.745204,0.6971389,5.36,0,-999,0,19.9,89.7,20,19.99,0.2,0,0,20.74,13.24,0.2,101.6133,3.343,3.344,3.342,100,0,0,0,204.5,24.3,24.3
"2022-08-26 00:04:00",3085608,3.954667,324.5273,7.233562,0.5663434,4.98,0,3.903333,324.0067,8.355164,0.5355952,4.88,0,-999,0,19.93,89.6,20,20.02,0.2,0,0,20.75,13.25,0.2,101.6136,3.345,3.345,3.342,100,0,0,0,204.5,24.29,24.3
"2022-08-26 00:05:00",3085609,4.765333,325.1977,4.307121,0.5541344,5.77,0,3.882,328.591,6.103699,0.698362,5.45,0,-999,0,19.99,89.5,20,20.02,0.2,0,0,20.74,13.24,0.2,101.6115,3.34,3.346,3.34,100,0,0,0,204.5,24.3,24.3
"2022-08-26 00:06:00",3085610,4.250667,327.1297,5.569868,0.5662092,5.1,0,3.426,327.6812,6.963467,0.3184504,4.04,0,-999,0,20,89.2,20.02,20.04,0.2,0,0,20.76,13.24,0.2,101.6154,3.342,3.344,3.338,100,0,0,0,204.5,24.3,24.3
"2022-08-26 00:07:00",3085611,3.474667,330.31,8.193556,0.3713554,4.47,0,3.259333,335.3347,6.530941,0.5035669,4.09,0,-999,0,20,89.5,20.03,20.03,0.2,0,0,20.77,13.26,0.2,101.6134,3.343,3.344,3.342,100,0,0,0,204.5,24.3,24.3
"2022-08-26 00:08:00",3085612,3.217334,330.8837,8.285716,0.3912453,3.98,0,2.830666,324.7295,7.855694,0.3633633,3.39,0,-999,0,19.99,89.8,20.02,20.02,0.2,0,0,20.77,13.25,0.2,101.619,3.344,3.345,3.339,100,0,0,0,204.5,24.3,24.3
"2022-08-26 00:09:00",3085613,3.541333,332.267,5.719103,0.372449,4.1,0,2.912,331.66,7.120657,0.6198301,3.98,0,-999,0,19.97,89.8,20.01,20.02,0.2,0,0,20.78,13.26,0.2,101.6164,3.342,3.345,3.342,100,0,0,0,204.5,24.3,24.3
"2022-08-26 00:10:00",3085614,3.143333,333.838,9.66416,0.3069129,3.63,0,2.648,326.2292,7.985601,0.4975165,3.82,0,-999,0,19.95,89.5,20,20.02,0.2,0,0,20.79,13.26,0.2,101.6101,3.342,3.343,3.34,100,0,0,0,204.5,24.29,24.3
"2022-08-26 00:11:00",3085615,3.560667,332.5967,6.90318,0.3372135,4.34,0,3.393333,328.1992,5.073145,0.4072946,4.1,0,-999,0,19.95,89.6,20,20.01,0.2,0,0,20.8,13.26,0.2,101.6174,3.339,3.344,3.338,100,0,0,0,204.5,24.3,24.3
"2022-08-26 00:12:00",3085616,4.177333,331.3219,7.165535,0.5698709,5.73,0,3.191334,336.4726,5.001696,0.5678012,4.34,0,-999,0,19.98,89.3,20,20.02,0.2,0,0,20.8,13.24,0.2,101.612,3.34,3.342,3.338,100,0,0,0,204.5,24.3,24.3
"2022-08-26 00:13:00",3085617,4.803334,336.7421,7.41013,0.4902335,6.03,0,4.144,346.6058,5.87241,0.4501378,5.03,0,-999,0,20,89.1,20,20.02,0.2,0,0,20.8,13.23,0.2,101.6124,3.337,3.34,3.336,100,0,0,0,204.5,24.3,24.3
"2022-08-26 00:14:00",3085618,3.971333,334.196,5.633945,0.3644332,4.72,0,3.482667,332.2619,8.131578,0.5923902,4.71,0,-999,0,20,89,20.02,20.04,0.2,0,0,20.8,13.25,0.2,101.6116,3.338,3.342,3.337,100,0,0,0,204.5,24.3,24.3
"2022-08-26 00:15:00",3085619,4.805334,334.4673,5.985734,0.4214557,5.82,0,3.83,340.7077,9.090521,0.8316088,5.76,0,-999,0,20,89.1,20.01,20.03,0.2,0,0,20.82,13.25,0.2,101.6053,3.338,3.34,3.336,100,0,0,0,204.5,24.29,24.3
"2022-08-26 00:16:00",3085620,4.516667,335.9388,7.467288,0.6993108,5.52,0,3.802666,340.9911,11.13122,0.4480099,4.93,0,-999,0,19.99,89.1,20,20.02,0.2,0,0,20.83,13.25,0.2,101.6075,3.338,3.34,3.337,100,0,0,0,204.5,24.29,24.3
"2022-08-26 00:17:00",3085621,4.157333,342.0359,8.958692,0.6602674,5.3,0,3.466667,337.168,8.93988,0.4282315,4.17,0,-999,0,19.95,89,20,20,0.2,0,0,20.83,13.24,0.2,101.6073,3.336,3.339,3.336,100,0,0,0,204.5,24.29,24.3
"2022-08-26 00:18:00",3085622,4.204667,335.0917,11.55728,0.6060458,5.03,0,3.252666,326.5221,9.789781,0.649271,4.66,0,-999,0,19.93,88.9,20,20.02,0.2,0,0,20.83,13.24,0.2,101.606,3.337,3.338,3.334,100,0,0,0,204.5,24.3,24.29
"2022-08-26 00:19:00",3085623,4.395333,337.7351,5.69527,0.6752173,5.23,0,3.415334,338.5497,9.636226,0.6542667,4.51,0,-999,0,19.99,88.8,20,20.02,0.2,0,0,20.84,13.25,0.2,101.6065,3.335,3.338,3.335,100,0,0,0,204.5,24.3,24.29
"2022-08-26 00:20:00",3085624,4.174667,337.4682,8.95917,0.4748033,5.12,0,4.097333,333.0005,5.572786,0.6240991,5.45,0,-999,0,19.9,88.9,19.99,19.97,0.2,0,0,20.84,13.24,0.2,101.6081,3.335,3.337,3.334,100,0,0,0,204.5,24.29,24.29
"2022-08-26 00:21:00",3085625,5.271334,338.2666,4.581079,0.8721151,6.48,0,4.331334,341.7339,4.970501,0.8229206,5.73,0,-999,0,19.9,88.8,19.99,19.96,0.2,0,0,20.85,13.25,0.2,101.6044,3.338,3.338,3.333,100,0,0,0,204.5,24.29,24.29
"2022-08-26 00:22:00",3085626,4.952667,336.7965,6.239891,0.6728394,6.28,0,4.794667,330.8108,7.675984,0.4269717,5.6,0,-999,0,19.94,88.3,20,20,0.2,0,0,20.85,13.25,0.2,101.606,3.338,3.338,3.335,100,0,0,0,204.5,24.29,24.29
"2022-08-26 00:23:00",3085627,5.532,338.2006,6.14318,0.7598525,6.72,0,3.911999,336.2027,6.419515,0.8672732,5.69,0,-999,0,19.96,88.5,20,20.01,0.2,0,0,20.85,13.23,0.2,101.6072,3.335,3.338,3.334,100,0,0,0,204.5,24.29,24.29
"2022-08-26 00:24:00",3085628,5.800667,331.8604,7.250315,0.933984,7.87,0,4.641333,336.8421,11.76231,0.6196867,5.6,0,-999,0,20,88.2,20,20.02,0.2,0,0,20.85,13.25,0.2,101.6042,3.337,3.337,3.334,100,0,0,0,204.5,24.29,24.29
"2022-08-26 00:25:00",3085629,5.62,334.7396,6.114134,0.7440431,7.03,0,4.952667,337.3549,11.63633,0.8074855,7.12,0,-999,0,20,88,20.01,20.04,0.2,0,0,20.85,13.25,0.2,101.6064,3.334,3.337,3.333,100,0,0,0,204.5,24.29,24.29
"2022-08-26 00:26:00",3085630,5.259334,332.5375,8.719478,0.7047313,6.73,0,4.346666,335.755,10.75636,0.8612058,6.11,0,-999,0,20,88.1,20.02,20.03,0.2,0,0,20.85,13.24,0.2,101.6085,3.334,3.335,3.332,100,0,0,0,204.5,24.3,24.29
"2022-08-26 00:27:00",3085631,5.869333,331.9066,7.814648,0.7049677,7.24,0,5.028,338.1331,3.592699,0.6444657,6.23,0,-999,0,20,88,20.06,20.04,0.2,0,0,20.86,13.25,0.2,101.6085,3.334,3.335,3.333,100,0,0,0,204.5,24.31,24.29
"2022-08-26 00:28:00",3085632,4.974666,336.1388,5.757682,0.5965329,5.81,0,4.194,328.0665,3.355522,0.7938413,5.51,0,-999,0,20,87.8,20.06,20.07,0.2,0,0,20.86,13.24,0.2,101.6062,3.333,3.334,3.333,100,0,0,0,204.5,24.31,24.29
"2022-08-26 00:29:00",3085633,4.783333,333.9344,7.918304,0.4702576,5.89,0,3.98,329.4694,6.085535,0.8906626,5.17,0,-999,0,20,88.2,20.06,20.03,0.2,0,0,20.87,13.24,0.2,101.6073,3.334,3.335,3.332,100,0,0,0,204.5,24.3,24.3
"2022-08-26 00:30:00",3085634,5.060667,334.5204,8.233591,0.6862406,6.44,0,5.005334,337.4121,11.96838,1.145414,6.24,0,-999,0,20,88.2,20.06,20.03,0.2,0,0,20.88,13.25,0.2,101.6107,3.333,3.335,3.333,100,0,0,0,204.5,24.29,24.3
"2022-08-26 00:31:00",3085635,5.574,332.7138,8.579458,0.5680587,6.24,0,4.286667,332.063,10.60702,0.6834,5.34,0,-999,0,20,87.8,20.07,20.07,0.2,0,0,20.88,13.23,0.2,101.6081,3.332,3.334,3.33,100,0,0,0,204.5,24.3,24.3
"2022-08-26 00:32:00",3085636,4.986666,331.4132,7.32799,0.979501,6.7,0,4.801333,326.9955,6.248696,0.6513561,5.93,0,-999,0,20,88.1,20.05,20.05,0.2,0,0,20.88,13.27,0.2,101.6102,3.333,3.333,3.332,100,0,0,0,204.5,24.29,24.3
"2022-08-26 00:33:00",3085637,5.358667,335.0639,6.004475,0.55159,6.23,0,4.944001,340.406,8.068894,0.585489,5.83,0,-999,0,20,87.8,20.05,20.05,0.2,0,0,20.89,13.25,0.2,101.6061,3.331,3.333,3.331,100,0,0,0,204.5,24.29,24.3
"2022-08-26 00:34:00",3085638,6.193332,330.9955,5.48699,0.7954594,7.59,0,4.623333,332.014,8.873921,0.5845416,5.81,0,-999,0,20,87.7,20.06,20.07,0.2,0,0,20.89,13.25,0.2,101.6092,3.333,3.333,3.329,100,0,0,0,204.5,24.3,24.3
"2022-08-26 00:35:00",3085639,4.846,337.2605,4.914975,0.4526043,5.58,0,4.806666,332.8645,5.375706,0.4612689,5.57,0,-999,0,20,87.6,20.07,20.07,0.2,0,0,20.91,13.24,0.2,101.6044,3.331,3.332,3.328,100,0,0,0,204.5,24.29,24.3
"2022-08-26 00:36:00",3085640,4.929334,338.2047,6.21842,0.4632849,5.81,0,4.076,334.6666,7.65462,0.5937991,5.11,0,-999,0,20,88.3,20.05,20.03,0.2,0,0,20.91,13.24,0.2,101.6076,3.331,3.331,3.327,100,0,0,0,204.5,24.29,24.3
"2022-08-26 00:37:00",3085641,4.808667,339.8738,9.10191,0.7134132,5.92,0,4.216666,332.7989,3.762162,0.8461021,5.49,0,-999,0,20,88.2,20.04,20.01,0.2,0,0,20.91,13.24,0.2,101.6075,3.328,3.331,3.328,100,0,0,0,204.5,24.31,24.3
"2022-08-26 00:38:00",3085642,5.572,338.3358,5.916226,0.7250398,6.67,0,4.224,340.668,5.947399,0.9798013,6.11,0,-999,0,19.99,88.2,20.05,20.01,0.2,0,0,20.91,13.25,0.2,101.6087,3.329,3.33,3.327,100,0,0,0,204.5,24.29,24.3
"2022-08-26 00:39:00",3085643,5.114666,337.9992,5.99854,0.6908437,6.76,0,3.890666,336.1905,8.123936,0.73378,5.57,0,-999,0,20,88.2,20.02,20.01,0.2,0,0,20.91,13.24,0.2,101.6081,3.326,3.331,3.326,100,0,0,0,204.5,24.3,24.29
"2022-08-26 00:40:00",3085644,4.471334,333.0631,7.536687,0.6913164,6.26,0,3.125333,332.2729,8.35571,0.4310741,3.79,0,-999,0,19.97,88.2,20.01,20.01,0.2,0,0,20.93,13.24,0.2,101.6074,3.326,3.329,3.326,100,0,0,0,204.5,24.29,24.29
"2022-08-26 00:41:00",3085645,5.18,328.5296,5.941261,0.7378889,6.41,0,3.843334,336.3317,3.874034,0.7137941,5.06,0,-999,0,19.99,88,20.02,20.01,0.2,0,0,20.93,13.26,0.2,101.6071,3.328,3.329,3.327,100,0,0,0,204.5,24.28,24.29
"2022-08-26 00:42:00",3085646,5.248666,326.0397,8.168735,0.7099001,6.64,0,4.003333,328.8143,10.80082,0.7936723,5.2,0,-999,0,20,87.8,20.02,20.02,0.2,0,0,20.93,13.24,0.2,101.6085,3.325,3.328,3.325,100,0,0,0,204.5,24.28,24.29
"2022-08-26 00:43:00",3085647,5.201333,326.1238,7.054291,0.7666366,6.6,0,4.636,328.8427,9.351114,0.5292485,5.6,0,-999,0,20,87.6,20.04,20.04,0.2,0,0,20.93,13.24,0.2,101.6089,3.324,3.327,3.324,100,0,0,0,204.5,24.29,24.29
"2022-08-26 00:44:00",3085648,4.640666,333.8482,7.899963,0.8770972,6.54,0,4.630667,329.3275,6.931211,0.843686,6.47,0,-999,0,20,87.8,20.05,20.02,0.2,0,0,20.93,13.25,0.2,101.6096,3.326,3.328,3.325,100,0,0,0,204.5,24.28,24.29
"2022-08-26 00:45:00",3085649,5.478666,330.1251,7.65598,0.4949999,6.42,0,4.237333,332.3985,7.207669,0.7432134,5.44,0,-999,0,20,87.6,20.04,20.02,0.2,0,0,20.94,13.23,0.2,101.611,3.325,3.326,3.322,100,0,0,0,204.5,24.28,24.29
"2022-08-26 00:46:00",3085650,5.268,332.6558,8.044726,0.5041455,5.98,0,4.336667,336.5985,5.311136,0.6256906,5.44,0,-999,0,20,87.7,20.05,20.03,0.2,0,0,20.95,13.24,0.2,101.6105,3.32,3.325,3.319,100,0,0,0,204.5,24.29,24.29
"2022-08-26 00:47:00",3085651,5.663333,328.2691,4.387215,0.7931595,6.86,0,3.788666,329.9576,9.130004,0.6169913,4.89,0,-999,0,20,87.6,20.05,20.03,0.2,0,0,20.96,13.25,0.2,101.6115,3.317,3.32,3.316,100,0,0,0,204.5,24.29,24.29
"2022-08-26 00:48:00",3085652,4.878001,332.3874,6.315939,0.612146,6.44,0,4.092,330.2678,8.64223,0.5792661,5.17,0,-999,0,20,87.5,20.04,20.07,0.2,0,0,20.95,13.26,0.2,101.6069,3.318,3.319,3.316,100,0,0,0,204.5,24.29,24.29
"2022-08-26 00:49:00",3085653,4.905334,330.676,6.662496,0.8122057,6.15,0,4.186667,324.8634,5.641025,0.7615482,5.53,0,-999,0,20,87.5,20.05,20.06,0.2,0,0,20.96,13.25,0.2,101.6113,3.316,3.317,3.315,100,0,0,0,204.5,24.29,24.29
"2022-08-26 00:50:00",3085654,4.386,331.8641,9.209871,0.5260646,5.18,0,3.782,328.9068,10.48404,0.4348823,4.41,0,-999,0,20,87.7,20.04,20.03,0.2,0,0,20.96,13.25,0.2,101.6114,3.316,3.316,3.314,100,0,0,0,204.5,24.28,24.29
"2022-08-26 00:51:00",3085655,5.174001,337.8105,8.71974,0.5739199,6.45,0,3.033333,330.0625,5.636235,0.4292267,4,0,-999,0,20,87.6,20.04,20.04,0.2,0,0,20.96,13.23,0.2,101.613,3.312,3.315,3.311,100,0,0,0,204.5,24.3,24.29
"2022-08-26 00:52:00",3085656,5.486001,327.9908,7.92888,0.7687982,6.57,0,3.402,330.9457,8.895802,0.5826514,4.64,0,-999,0,20,87.3,20.04,20.06,0.2,0,0,20.96,13.25,0.2,101.6129,3.312,3.312,3.311,100,0,0,0,204.5,24.29,24.29
"2022-08-26 00:53:00",3085657,5.709333,330.3979,6.160216,0.8145466,7.34,0,4.044667,334.1603,11.95681,1.203926,6.15,0,-999,0,20.02,86.9,20.06,20.08,0.2,0,0,20.96,13.25,0.2,101.6116,3.311,3.314,3.311,100,0,0,0,204.5,24.29,24.29
"2022-08-26 00:54:00",3085658,5.543334,327.5504,9.28978,0.7088551,6.88,0,4.928,332.4124,7.588268,0.9143828,6.83,0,-999,0,20.09,86.8,20.07,20.08,0.2,0,0,20.96,13.24,0.2,101.614,3.31,3.312,3.308,100,0,0,0,204.5,24.28,24.29
"2022-08-26 00:55:00",3085659,6.369333,338.3539,9.861097,0.9756603,7.95,0,5.191333,336.3343,16.1989,0.7793062,6.51,0,-999,0,20.1,86.6,20.08,20.09,0.2,0,0,20.96,13.25,0.2,101.611,3.311,3.311,3.309,100,0,0,0,204.5,24.3,24.29
"2022-08-26 00:56:00",3085660,5.2,333.2931,8.552262,0.6076733,6.31,0,4.645333,325.9391,6.873196,0.9637003,6.34,0,-999,0,20.09,86.7,20.1,20.08,0.2,0,0,20.97,13.25,0.2,101.6109,3.31,3.312,3.308,100,0,0,0,204.5,24.3,24.29
"2022-08-26 00:57:00",3085661,5.912667,331.3341,4.947589,0.63616,7,0,4.726666,332.0641,5.063768,0.8978025,6.91,0,-999,0,20,86.8,20.05,20.05,0.2,0,0,20.99,13.24,0.2,101.6098,3.307,3.311,3.307,100,0,0,0,204.5,24.29,24.29
"2022-08-26 00:58:00",3085662,4.506,337.6565,7.446527,0.4338325,5.19,0,3.650666,331.6416,10.20939,0.6442097,4.89,0,-999,0,20.03,86.4,20.05,20.08,0.2,0,0,20.99,13.25,0.2,101.6089,3.308,3.309,3.307,100,0,0,0,204.5,24.29,24.29
"2022-08-26 00:59:00",3085663,4.561333,337.4686,5.186507,0.5741645,5.72,0,4.151333,336.0657,6.823923,0.8399671,5.42,0,-999,0,20,86.7,20.05,20.07,0.2,0,0,20.99,13.25,0.2,101.6094,3.308,3.309,3.307,100,0,0,0,204.5,24.28,24.29
"2022-08-26 01:00:00",3085664,5.18,336.1932,7.48855,0.7971365,6.28,0,4.201334,329.9101,8.886506,0.5931033,5.46,0,-999,0,20,86.5,20.04,20.05,0.2,0,0,20.99,13.25,0.2,101.6146,3.309,3.309,3.307,100,0,0,0,204.5,24.28,24.29
"2022-08-26 01:01:00",3085665,4.210667,326.469,7.370267,0.6216909,5.17,0,4.142667,330.2673,4.388065,0.7753576,5.72,0,-999,0,20,86.6,20.03,20.03,0.2,0,0,20.99,13.25,0.2,101.6101,3.306,3.309,3.306,100,0,0,0,204.5,24.28,24.29
"2022-08-26 01:02:00",3085666,3.899333,333.3676,12.17709,0.6207572,5.14,0,4.141333,329.9385,7.718413,0.8162668,5.9,0,-999,0,19.99,86.8,20.02,20.01,0.2,0,0,20.99,13.24,0.2,101.6129,3.307,3.308,3.305,100,0,0,0,204.5,24.29,24.29
"2022-08-26 01:03:00",3085667,5.306,329.066,10.01254,0.7125617,6.76,0,5.523334,323.531,6.117231,1.091676,7.93,0,-999,0,19.91,86.7,19.98,20,0.2,0,0,20.99,13.25,0.2,101.6147,3.306,3.308,3.305,100,0,0,0,204.5,24.29,24.29
"2022-08-26 01:04:00",3085668,5.432667,330.8625,5.146368,0.7166725,6.89,0,4.778,327.1306,5.459401,0.5208992,5.86,0,-999,0,19.91,86.5,19.98,19.98,0.2,0,0,21,13.25,0.2,101.6135,3.306,3.307,3.303,100,0,0,0,204.5,24.28,24.29
"2022-08-26 01:05:00",3085669,5.360667,326.4666,4.923393,0.5313187,6.08,0,4.659999,328.2749,7.483783,0.4697517,5.9,0,-999,0,19.91,86.6,19.98,19.99,0.2,0,0,20.99,13.24,0.2,101.6175,3.305,3.307,3.303,100,0,0,0,204.5,24.28,24.29
"2022-08-26 01:06:00",3085670,5.746666,323.1402,5.531175,0.6860386,6.75,0,5.494,322.4014,3.6654,0.6912771,6.71,0,-999,0,19.97,86.4,19.99,20.01,0.2,0,0,20.99,13.26,0.2,101.6164,3.307,3.307,3.303,100,0,0,0,204.5,24.28,24.28
"2022-08-26 01:07:00",3085671,6.452668,322.933,4.492256,1.24047,8.46,0,5.496666,323.6263,8.890476,0.9148162,6.67,0,-999,0,20,86.1,20.02,20.04,0.2,0,0,20.99,13.24,0.2,101.617,3.305,3.307,3.303,100,0,0,0,204.5,24.28,24.28
"2022-08-26 01:08:00",3085672,5.396667,333.1491,8.671362,0.6534082,6.58,0,4.968667,327.5789,8.290995,0.9866094,6.94,0,-999,0,20,86,20.05,20.06,0.2,0,0,20.99,13.23,0.2,101.6161,3.302,3.306,3.302,100,0,0,0,204.5,24.28,24.28
"2022-08-26 01:09:00",3085673,6.088667,326.1297,7.951566,1.113402,8.14,0,4.622667,336.2009,10.14243,0.973793,6.77,0,-999,0,20,86.1,20.05,20.07,0.2,0,0,20.99,13.24,0.2,101.6128,3.306,3.306,3.302,100,0,0,0,204.5,24.29,24.28
"2022-08-26 01:10:00",3085674,6.177999,326.8022,5.061105,0.7300703,7.78,0,5.124667,330.5456,5.565975,0.8121483,6.37,0,-999,0,20.07,85.6,20.09,20.1,0.2,0,0,21,13.24,0.2,101.6095,3.314,3.314,3.306,100,0,0,0,204.5,24.29,24.28
"2022-08-26 01:11:00",3085675,5.252667,330.1211,6.264632,0.5218488,5.9,0,3.776667,328.2672,4.341969,0.6020041,4.75,0,-999,0,20.06,85.9,20.08,20.08,0.2,0,0,21.01,13.23,0.2,101.6121,3.315,3.315,3.313,100,0,0,0,204.5,24.28,24.28
"2022-08-26 01:12:00",3085676,4.817334,330.9248,9.006906,0.5636365,5.81,0,3.575333,328.33,6.432733,0.4760793,4.43,0,-999,0,20.01,86,20.05,20.07,0.2,0,0,21.01,13.25,0.2,101.6073,3.316,3.316,3.315,100,0,0,0,204.5,24.28,24.28
"2022-08-26 01:13:00",3085677,5.741333,328.2319,10.18421,0.5481711,6.63,0,4.966,323.8158,9.039566,1.123119,7.09,0,-999,0,20,86.1,20.05,20.06,0.2,0,0,21.01,13.25,0.2,101.6072,3.315,3.316,3.315,100,0,0,0,204.5,24.27,24.28
"2022-08-26 01:14:00",3085678,4.976,339.0487,7.208012,0.7226782,6.43,0,3.558,334.8002,8.570636,0.6081469,4.63,0,-999,0,20,86.1,20.04,20.02,0.2,0,0,21.02,13.25,0.2,101.6061,3.315,3.316,3.314,100,0,0,0,204.5,24.28,24.28
"2022-08-26 01:15:00",3085679,5.47,337.1351,4.07953,0.7810078,6.69,0,4.302,343.0713,8.205908,0.7108511,5.79,0,-999,0,19.97,86.3,20.01,19.99,0.2,0,0,21.02,13.23,0.2,101.6052,3.313,3.316,3.313,100,0,0,0,204.5,24.28,24.28
"2022-08-26 01:16:00",3085680,5.948667,331.6658,4.496148,0.7852122,7.33,0,3.744666,335.2268,8.800151,0.7437639,5.95,0,-999,0,19.99,86.1,20.01,19.99,0.2,0,0,21.01,13.24,0.2,101.6,3.314,3.316,3.313,100,0,0,0,204.5,24.27,24.28
"2022-08-26 01:17:00",3085681,5.872666,333.3983,4.985402,0.5301882,6.88,0,3.995333,337.9382,6.926185,0.5674375,5.37,0,-999,0,19.98,86,20,20,0.2,0,0,21.01,13.25,0.2,101.6003,3.314,3.316,3.313,100,0,0,0,204.5,24.27,24.28
"2022-08-26 01:18:00",3085682,5.418666,330.6649,4.797632,1.236532,7.03,0,4.089334,333.8516,7.167276,0.7535734,5.63,0,-999,0,19.9,86.5,19.98,19.93,0.2,0,0,21,13.23,0.2,101.5998,3.311,3.315,3.311,100,0,0,0,204.5,24.27,24.28
"2022-08-26 01:19:00",3085683,5.208,332.0001,3.75843,0.5120443,6.03,0,4.503333,334.1286,7.994252,0.7427756,6.22,0,-999,0,19.9,86.6,19.93,19.92,0.2,0,0,20.99,13.24,0.2,101.5991,3.313,3.314,3.312,100,0,0,0,204.5,24.29,24.28
"2022-08-26 01:20:00",3085684,5.103333,334.0557,7.358159,0.7980448,6.83,0,3.686667,333.3991,9.349361,0.6677991,5.04,0,-999,0,19.9,86.6,19.94,19.92,0.2,0,0,20.99,13.24,0.2,101.6015,3.314,3.314,3.31,100,0,0,0,204.5,24.28,24.28
"2022-08-26 01:21:00",3085685,4.817334,334.1211,5.491943,0.7699217,6.55,0,3.652,330.1918,9.850526,0.4416968,4.57,0,-999,0,19.9,86.5,19.95,19.93,0.2,0,0,20.99,13.26,0.2,101.6008,3.315,3.315,3.312,100,0,0,0,204.5,24.27,24.28
"2022-08-26 01:22:00",3085686,5.314,333.467,5.424762,0.8863919,7.12,0,3.376,333.2009,10.62668,0.7766492,5.09,0,-999,0,19.84,86.8,19.91,19.9,0.2,0,0,20.98,13.25,0.2,101.5983,3.314,3.315,3.312,100,0,0,0,204.5,24.27,24.27
"2022-08-26 01:23:00",3085687,4.665333,338.0703,6.349352,0.6189977,6.04,0,3.771333,339.0065,7.05798,0.5810894,5.02,0,-999,0,19.86,86.7,19.91,19.91,0.2,0,0,20.96,13.24,0.2,101.594,3.314,3.315,3.312,100,0,0,0,204.5,24.27,24.27
"2022-08-26 01:24:00",3085688,5.004,335.1435,8.778324,0.9119343,7.53,0,4.171333,341.6021,5.88251,0.8088252,5.58,0,-999,0,19.83,86.9,19.9,19.87,0.2,0,0,20.96,13.24,0.2,101.5949,3.313,3.315,3.311,100,0,0,0,204.5,24.27,24.27
"2022-08-26 01:25:00",3085689,4.920667,330.3685,9.320828,0.8904716,6.53,0,4.525333,330.7878,10.34461,0.6596348,5.46,0,-999,0,19.8,86.9,19.89,19.85,0.2,0,0,20.96,13.25,0.2,101.5969,3.314,3.315,3.312,100,0,0,0,204.5,24.26,24.27
"2022-08-26 01:26:00",3085690,5.044667,334.7219,9.388526,0.7672102,6.48,0,3.511333,331.9135,9.849275,0.7713526,5.06,0,-999,0,19.78,87.1,19.84,19.8,0.2,0,0,20.96,13.23,0.2,101.597,3.313,3.314,3.311,100,0,0,0,204.5,24.27,24.27
"2022-08-26 01:27:00",3085691,5.776666,335.0572,8.57232,0.8233563,6.8,0,4.803334,334.731,7.473072,0.5378435,6.17,0,-999,0,19.79,87.1,19.83,19.8,0.2,0,0,20.96,13.25,0.2,101.5983,3.313,3.314,3.311,100,0,0,0,204.5,24.27,24.27
"2022-08-26 01:28:00",3085692,5.681334,338.0677,6.902449,0.653451,6.81,0,3.565333,331.3666,7.944257,0.8084707,5.3,0,-999,0,19.75,87.2,19.83,19.78,0.2,0,0,20.95,13.25,0.2,101.5966,3.314,3.315,3.313,100,0,0,0,204.5,24.28,24.27
"2022-08-26 01:29:00",3085693,5.197333,334.0632,7.503082,0.4948867,6.17,0,4.268,338.9324,6.295302,0.5841027,5.3,0,-999,0,19.79,87.1,19.83,19.8,0.2,0,0,20.93,13.25,0.2,101.5976,3.313,3.314,3.311,100,0,0,0,204.5,24.28,24.27
"2022-08-26 01:30:00",3085694,5.225999,331.6634,7.299072,0.685826,6.41,0,3.836,331.9311,8.945703,0.649141,5.51,0,-999,0,19.73,87.4,19.78,19.77,0.2,0,0,20.93,13.23,0.2,101.5985,3.31,3.314,3.31,100,0,0,0,204.5,24.27,24.27
"2022-08-26 01:31:00",3085695,4.622667,323.8678,3.323158,0.5791656,5.36,0,3.858666,327.0655,7.934575,0.649193,5.14,0,-999,0,19.75,87.3,19.81,19.78,0.2,0,0,20.91,13.25,0.2,101.5992,3.312,3.314,3.311,100,0,0,0,204.5,24.26,24.27
"2022-08-26 01:32:00",3085696,4.100667,326.2653,8.997021,0.4890054,5.01,0,3.573334,328.9827,7.791295,0.4817975,4.48,0,-999,0,19.71,87.4,19.77,19.77,0.2,0,0,20.91,13.24,0.2,101.5985,3.313,3.314,3.311,100,0,0,0,204.5,24.26,24.27
"2022-08-26 01:33:00",3085697,4.454667,329.1794,7.88541,0.6124581,5.87,0,2.873333,328.1243,9.236149,0.7865677,4.87,0,-999,0,19.7,87.7,19.75,19.72,0.2,0,0,20.91,13.25,0.2,101.5993,3.313,3.315,3.312,100,0,0,0,204.5,24.26,24.27
"2022-08-26 01:34:00",3085698,4.821333,328.5281,7.270872,0.5944843,6.21,0,3.237334,334.2751,7.53457,0.7523161,4.66,0,-999,0,19.67,87.7,19.72,19.71,0.2,0,0,20.9,13.25,0.2,101.5972,3.313,3.314,3.312,100,0,0,0,204.5,24.27,24.27
"2022-08-26 01:35:00",3085699,4.863334,326.8673,6.222561,0.4312565,5.49,0,3.499333,326.1937,9.602285,0.5007657,4.32,0,-999,0,19.61,87.7,19.72,19.71,0.2,0,0,20.88,13.24,0.2,101.5985,3.312,3.314,3.311,100,0,0,0,204.5,24.26,24.27
"2022-08-26 01:36:00",3085700,4.277334,328.6482,7.975808,0.6880258,5.31,0,3.894666,328.3239,6.835492,0.5398996,4.79,0,-999,0,19.6,87.9,19.7,19.69,0.2,0,0,20.88,13.25,0.2,101.6013,3.313,3.313,3.31,100,0,0,0,204.5,24.26,24.27
"2022-08-26 01:37:00",3085701,4.068666,326.6585,5.062777,0.430517,4.74,0,3.706666,327.2654,6.390449,0.4226688,4.6,0,-999,0,19.6,88.2,19.67,19.62,0.2,0,0,20.85,13.25,0.2,101.5983,3.312,3.314,3.311,100,0,0,0,204.5,24.26,24.27
"2022-08-26 01:38:00",3085702,5.012001,330.397,8.856501,0.774564,6.56,0,3.928666,326.0744,7.45508,0.6110194,5.06,0,-999,0,19.55,88.3,19.62,19.61,0.2,0,0,20.85,13.25,0.2,101.5999,3.313,3.313,3.311,100,0,0,0,204.5,24.26,24.27
"2022-08-26 01:39:00",3085703,4.358666,332.3291,6.475507,0.662036,5.62,0,3.976667,329.2663,7.186647,0.4053092,4.65,0,-999,0,19.6,88,19.67,19.64,0.2,0,0,20.85,13.22,0.2,101.6024,3.31,3.313,3.31,100,0,0,0,204.5,24.27,24.27
"2022-08-26 01:40:00",3085704,4.640666,326.5922,6.864427,0.5756326,5.36,0,4.044,332.3309,5.627172,0.5328765,4.86,0,-999,0,19.6,88.2,19.66,19.64,0.2,0,0,20.84,13.25,0.2,101.599,3.311,3.314,3.311,100,0,0,0,204.5,24.27,24.27
"2022-08-26 01:41:00",3085705,4.727999,325.9265,5.991433,1.104223,6.64,0,4.652667,324.5778,7.864483,0.7802347,6.12,0,-999,0,19.6,88.1,19.69,19.64,0.2,0,0,20.83,13.26,0.2,101.5991,3.313,3.314,3.311,100,0,0,0,204.5,24.27,24.27
"2022-08-26 01:42:00",3085706,4.388,331.0647,4.311361,0.3506793,5.16,0,4.372666,326.994,6.945755,0.9951513,6.16,0,-999,0,19.6,88.1,19.68,19.65,0.2,0,0,20.83,13.24,0.2,101.5978,3.311,3.314,3.311,100,0,0,0,204.5,24.27,24.27
"2022-08-26 01:43:00",3085707,4.844666,333.1738,7.837071,0.6341279,5.74,0,3.604667,333.1331,6.666738,0.4311051,4.61,0,-999,0,19.6,88.2,19.67,19.63,0.2,0,0,20.8,13.25,0.2,101.5966,3.312,3.313,3.312,100,0,0,0,204.5,24.27,24.27
"2022-08-26 01:44:00",3085708,4.136,329.0256,8.447295,0.5855345,5.55,0,3.906,329.1384,6.162298,0.6172391,5.13,0,-999,0,19.6,88.1,19.68,19.65,0.2,0,0,20.8,13.25,0.2,101.5991,3.311,3.314,3.311,100,0,0,0,204.5,24.27,24.27
"2022-08-26 01:45:00",3085709,4.644,329.2075,6.810229,1.023138,6.71,0,4.119334,332.7822,7.943494,0.5764312,5.39,0,-999,0,19.6,88.3,19.64,19.64,0.2,0,0,20.8,13.24,0.2,101.5994,3.312,3.314,3.31,100,0,0,0,204.5,24.26,24.27
"2022-08-26 01:46:00",3085710,4.476,327.2204,7.541554,0.5138327,5.23,0,3.883333,331.65,8.730885,0.5749976,4.85,0,-999,0,19.6,88.1,19.68,19.66,0.2,0,0,20.79,13.24,0.2,101.5986,3.312,3.315,3.311,100,0,0,0,204.5,24.26,24.27
"2022-08-26 01:47:00",3085711,4.370667,331.2073,6.540252,0.7348421,5.7,0,3.452,330.3322,5.555487,0.8022903,5.04,0,-999,0,19.6,88.1,19.69,19.67,0.2,0,0,20.77,13.24,0.2,101.602,3.314,3.314,3.311,100,0,0,0,204.5,24.26,24.27